Location: ????????
(54.8751°N, 38.5756°E)
Time: 05:44:12
(UTC+00:00)

NOSS 3-4 (A) - Visible Passes

Search period start: 16 July 2024 00:00
Search period end: 26 July 2024 00:00
Orbit: 801 x 1410 km, 63.4° (Epoch: 04 June)

Date Brightness Start Highest point End Pass type
(mag) Time Alt. Az. Time Alt. Az. Time Alt. Az.
16 Jul 5.1 00:07:08 10° SSE 00:11:10 21° ESE 00:15:26 10° ENE visible
16 Jul 5.4 23:24:18 10° SE 23:26:48 13° ESE 23:29:24 10° E visible
18 Jul 4.7 23:42:27 10° S 23:47:00 27° ESE 23:51:53 10° ENE visible
19 Jul 5.2 22:59:01 10° SSE 23:02:34 18° ESE 23:06:18 10° ENE visible
20 Jul 5.5 22:17:13 10° ESE 22:18:15 10° ESE 22:19:19 10° E visible
21 Jul 3.8 00:02:12 10° SSW 00:07:30 50° SE 00:13:22 10° NE visible
21 Jul 4.3 23:18:31 13° S 23:22:52 34° ESE 23:28:13 10° ENE visible
22 Jul 4.8 22:34:57 13° SSE 22:38:22 23° ESE 22:42:52 10° ENE visible
23 Jul 3.4 00:22:45 10° SW 00:28:19 86° SE 00:34:36 10° NE visible
23 Jul 5.2 21:51:21 11° SE 21:53:59 14° ESE 21:56:59 10° ENE visible
23 Jul 3.5 23:38:45 14° SSW 23:43:29 62° SE 23:49:34 10° NE visible
24 Jul 3.9 22:55:07 19° S 22:58:47 43° SE 23:04:29 10° NE visible
25 Jul 4.4 22:11:28 19° SSE 22:14:13 29° ESE 22:19:15 10° ENE visible
